Starlink 11235

operational
NORAD ID: 60726 Int'l Des: 2024-152 Owner: SPXS Country: US Constellation: starlink
LEOCIRCULAR

关于 Starlink 11235

正在加载描述...

实时位置

正在加载3D地球...

即将过境

高度历史

Altitude vs Time

uPlot chart will show altitude changes over time

两行轨道根数

1 60726U 24152G 25259.98868443 -.00003959 00000-0 -27859-4 0 9991
2 60726 53.1599 252.5191 0000831 70.7658 289.3450 15.69695778 61680
Epoch: Sep 16, 2025 • Age: 23 hours

当前状态

高度 360.4 km
速度 7.69 km/s
星下点 1.31°N, 88.18°W
发射日期 Aug 28, 2024
运行时间 1 years
类型 internet

技术详情

分类 Payload
质量 960.00 kg
干质量 910.00 kg
总质量 960.00 kg
长度 0.30 m
直径 4.10 m
跨度 29.00 m
形状 Box + pan
制造商 SPXS
平台类型 Starlink V2MD
阶段状态 In Orbit
所有者/国家 SPXS/US

大型星座

Loading constellations...